This is the latest recevied weather packets stored in our database for station/object KJ4UBX-11. If no packets are shown the sender has not sent any weather packets the latest 10 day(s).
| Time | Temp. | Humidity | Pressure | Rain* | Wind** | Luminosity | Snow |
|---|---|---|---|---|---|---|---|
| 1777850144 | 15° C | 42% | 1004 hPa | - | - | - | - |
| 1777849561 | 15.56° C | 44% | 1003.8 hPa | - | - | - | - |
| 1777848979 | 15.56° C | 37% | 1003.7 hPa | - | - | - | - |
| 1777848395 | 15° C | 38% | 1003.3 hPa | - | - | - | - |
| 1777847813 | 15.56° C | 37% | 1003.2 hPa | - | - | - | - |
| 1777847230 | 15.56° C | 40% | 1003 hPa | - | - | - | - |
| 1777846647 | 16.11° C | 34% | 1002.8 hPa | - | - | - | - |
| 1777846065 | 16.67° C | 38% | 1002.7 hPa | - | - | - | - |
| 1777845482 | 16.67° C | 35% | 1002.6 hPa | - | - | - | - |
| 1777844900 | 17.22° C | 37% | 1002.6 hPa | - | - | - | - |
| 1777844318 | 17.22° C | 41% | 1002.4 hPa | - | - | - | - |
| 1777843735 | 16.67° C | 36% | 1002.5 hPa | - | - | - | - |
| 1777843156 | 16.67° C | 36% | 1002.4 hPa | - | - | - | - |
| 1777842570 | 16.67° C | 40% | 1002.2 hPa | - | - | - | - |
| 1777841987 | 17.22° C | 43% | 1002.2 hPa | - | - | - | - |
| 1777841405 | 17.22° C | 39% | 1002.3 hPa | - | - | - | - |
| 1777840822 | 17.78° C | 43% | 1002.2 hPa | - | - | - | - |
| 1777840240 | 18.33° C | 39% | 1002.2 hPa | - | - | - | - |
| 1777839658 | 17.78° C | 36% | 1002.2 hPa | - | - | - | - |
| 1777839073 | 17.78° C | 36% | 1002.3 hPa | - | - | - | - |
| 1777838491 | 17.78° C | 36% | 1002.3 hPa | - | - | - | - |
| 1777837908 | 17.78° C | 35% | 1002.4 hPa | - | - | - | - |
| 1777837325 | 17.78° C | 41% | 1002.4 hPa | - | - | - | - |
| 1777836740 | 17.22° C | 38% | 1002.6 hPa | - | - | - | - |
| 1777836157 | 17.22° C | 41% | 1002.6 hPa | - | - | - | - |
* Rain since midnight (hover to see other rain measurements)
** Current wind speed in m/s (hover to see current wind gust speed)